• MPC Preparation (Info)

  • MPEC 2023-N72 : 2023 NL1

    The following Minor Planet Electronic Circular may be linked-to from your own Web pages, but must not otherwise be redistributed electronically.

    A form allowing access to any MPEC is at the bottom of this page.


    Read MPEC 2023-N71 Read MPEC 2023-N73


    M.P.E.C. 2023-N72                                 Issued 2023 July 15, 01:26 UT
    
         The Minor Planet Electronic Circulars contain information on unusual
             minor planets, routine data on comets and natural satellites,
             and occasional editorial announcements.  They are published
        on behalf of Division F of the International Astronomical Union by the
              Minor Planet Center, Smithsonian Astrophysical Observatory,
                              Cambridge, MA 02138, U.S.A.
    			  
                 Prepared using the Tamkin Foundation Computer Network
    
                                  MPC@CFA.HARVARD.EDU
                URL https://www.minorplanetcenter.net/    ISSN 1523-6714
    
                                    2023 NL1                                 
    
    
    Observations:
         K23N01L*KC2023 07 12.34704 20 36 34.38 +15 50 52.6          19.3 GVEN072W16
         K23N01L KC2023 07 12.35684 20 36 34.84 +15 49 26.9          19.8 GVEN072W16
         K23N01L KC2023 07 12.36829 20 36 35.41 +15 47 45.8          19.4 GVEN072W16
         K23N01L KC2023 07 12.37991 20 36 36.01 +15 46 04.2          19.4 GVEN072W16
         K23N01L KC2023 07 13.21685 20 37 36.26 +13 40 27.3          20.0 GVEN072W16
         K23N01L KC2023 07 13.22374 20 37 36.61 +13 39 23.3          19.7 GVEN072W16
         K23N01L KC2023 07 13.23071 20 37 36.94 +13 38 18.5          19.9 GVEN072W16
         K23N01L KC2023 07 13.23767 20 37 37.28 +13 37 13.4          19.9 GVEN072W16
         K23N01L KC2023 07 13.25520 20 37 38.15 +13 34 30.8          20.2 GVEN072W16
         K23N01L KC2023 07 13.81523 20 38 18.23 +12 05 07.4          19.8 GXEN072L51
         K23N01L KC2023 07 13.81673 20 38 18.35 +12 04 52.5          19.6 GXEN072L51
         K23N01L KC2023 07 13.81822 20 38 18.46 +12 04 37.1          19.8 GXEN072L51
         K23N01L bC2023 07 13.87816120 38 22.53 +11 54 51.2          20.3 GVEN072L01
         K23N01L IC2023 07 13.87964320 38 22.60 +11 54 37.4          20.1 GVEN072L01
         K23N01L bC2023 07 13.88112420 38 22.66 +11 54 22.1          19.7 GVEN072L01
         K23N01L KC2023 07 13.88718120 38 23.49 +11 53 21.8          20.5 GXEN072I93
         K23N01L bC2023 07 13.88968720 38 23.21 +11 52 57.7          20.6 GVEN072L01
         K23N01L KC2023 07 13.89731420 38 24.09 +11 51 42.3          20.3 GXEN072I93
         K23N01L KC2023 07 13.90721620 38 24.71 +11 50 06.0          20.9 GXEN072I93
         K23N01L 1C2023 07 13.93541 20 38 25.58 +11 45 25.1          20.6 VXEN072033
         K23N01L 1C2023 07 13.93587 20 38 25.63 +11 45 20.7          20.6 VXEN072033
         K23N01L 1C2023 07 13.93632 20 38 25.65 +11 45 15.5          20.4 VXEN072033
         K23N01L 1C2023 07 13.93694 20 38 25.67 +11 45 10.1          20.5 VXEN072033
         K23N01L KB2023 07 13.93750520 38 25.905+11 45 04.97         19.7 GXEN072B72
         K23N01L KB2023 07 13.93897620 38 25.889+11 44 51.50         19.5 GXEN072K74
         K23N01L KC2023 07 13.93916 20 38 26.12 +11 44 54.0          18.7 GXEN072G15
         K23N01L KC2023 07 13.94148 20 38 26.40 +11 44 31.1          19.8 VZEN072C95
         K23N01L KB2023 07 13.94606120 38 26.370+11 43 39.91         19.8 GXEN072B72
         K23N01L KC2023 07 13.94895 20 38 26.65 +11 43 16.5          18.9 GXEN072G15
         K23N01L KB2023 07 13.95148520 38 26.558+11 42 47.81         19.8 GXEN072K74
         K23N01L KB2023 07 13.95670420 38 26.926+11 41 55.26         19.5 GXEN072B72
         K23N01L KC2023 07 13.95686 20 38 27.22 +11 41 59.7          20.0 VZEN072C95
         K23N01L KC2023 07 13.95838 20 38 27.17 +11 41 43.7                XEN072G15
         K23N01L KB2023 07 13.96382520 38 27.178+11 40 46.60         19.3 GXEN072K74
         K23N01L KB2023 07 13.96938820 38 27.631+11 39 49.95         19.4 GXEN072B72
         K23N01L KC2023 07 13.97229 20 38 28.00 +11 39 27.5          20.1 VZEN072C95
         K23N01L 1C2023 07 14.05500 20 38 31.92 +11 25 41.4          20.3 VXEN072033
         K23N01L 1C2023 07 14.05540 20 38 31.93 +11 25 37.3          20.7 VXEN072033
         K23N01L 1C2023 07 14.05580 20 38 31.96 +11 25 33.7          20.6 VXEN072033
         K23N01L 1C2023 07 14.05639 20 38 31.98 +11 25 28.4          20.5 VXEN072033
         K23N01L 1C2023 07 14.05685 20 38 32.01 +11 25 23.6          20.6 VXEN072033
         K23N01L KC2023 07 14.19517020 38 44.26 +11 02 28.3          19.9 VuEN072H21
         K23N01L KC2023 07 14.19796920 38 44.40 +11 02 00.5          19.9 VuEN072H21
         K23N01L KC2023 07 14.20076720 38 44.56 +11 01 32.3          19.9 VuEN072H21
         K23N01L KC2023 07 14.20403320 38 44.73 +11 00 59.5          19.8 VuEN072H21
         K23N01L KC2023 07 14.90972820 39 34.54 +08 59 19.9          19.3 GVEN072104
         K23N01L KC2023 07 14.91405 20 39 34.80 +08 58 33.6          19.1 GXEN072K83
         K23N01L KC2023 07 14.91551520 39 34.90 +08 58 17.9                VEN072104
         K23N01L KC2023 07 14.92130220 39 35.18 +08 57 17.6          19.6 GVEN072104
         K23N01L KC2023 07 14.92215 20 39 35.18 +08 57 08.5          19.7 GXEN072K83
         K23N01L KC2023 07 14.93010 20 39 35.60 +08 55 44.2          20.0 GXEN072K83
         K23N01L KC2023 07 15.01836720 39 40.04 +08 40 02.3          20.1 GXEN072595
         K23N01L KC2023 07 15.03189020 39 40.74 +08 37 37.9          19.6 GXEN072595
         K23N01L pC2023 07 15.04520920 39 41.40 +08 35 14.8                XEN072595
    
    Observer details:
    033 Karl Schwarzschild Observatory, Tautenburg.  Observers S. Melnikov, C.
        Hoegner, F. Ludwig, B. Stecklum.  Measurer B. Stecklum.  1.34-m f/3
        Schmidt + CCD.
    104 San Marcello Pistoiese.  Observers P. Bacci, M. Maestripieri.  Measurer P.
        Bacci.  0.60-m f/4.0 reflector + CCD.
    595 Farra d'Isonzo.  Observer E. Pettarin.  0.61-m f/4.5 reflector + CCD.
    B72 Soerth.  Observer B. Koch.  0.36-m f/7.6 Schmidt-Cassegrain + CMO.
    C95 SATINO Remote Observatory, Haute Provence.  Observer D. Husar.  0.30-m
        f/5.8 reflector + CCD.
    G15 Magroforte Observatory, Alessandria.  Observer A. De Pieri.  0.23-m f/6.7
        SC + CCD.
    H21 Astronomical Research Observatory, Westfield.  Observer R. Holmes.
        Measurers T. Linder, R. Holmes, L. Horn.  0.76-m f/3.0 astrograph + CCD.
    I93 St Pardon de Conques.  Observer F. Losse.  0.40-m f/3.7 reflector + CMO.
    K74 Muensterschwarzach Observatory, Schwarzach.  Observer C. Gerhard.  0.30-m
        f/3.75 reflector + CMO.
    K83 Beppe Forti Astronomical Observatory, Montelupo.  Observers M. Tombelli,
        M. Iozzi, G. Interrante, M. Lombardo, L. Grazzini, T. Bitossi, F. Cheli,
        A. Mazzanti.  Measurers M. Tombelli, F. Bernardi.  0.40-m f/8 Ritchey-
        Chretien + CCD.
    L01 Visnjan Observatory, Tican.  Observer K. Korlevic.  1.0-m f/2.9 reflector
        + CCD.
    L51 MARGO, Nauchnyi.  Observer G. Borisov.  0.50-m f/1.9 reflector + CCD.
    W16 Pleasant Groves Observatory.  Observer M. Holbrook.  0.36-m f/2.2
        reflector + CCD.
    
    Orbital elements:
    2023 NL1                                                 Earth MOID = 0.1127 AU
    Epoch 2023 Feb. 25.0 TT = JDT 2460000.5                 MPC                     
    M 264.82680              (2000.0)            P               Q                  
    n   0.64158849     Peri.  180.97556     +0.51264673     +0.75383418             
    a   1.3313687      Node   119.98265     -0.78450127     +0.60578860             
    e   0.1517748      Incl.   28.32732     -0.34892848     -0.25446848             
    P   1.54           H   22.71          G   0.15           U   9                  
    Residuals in seconds of arc
    230712 W16  0.2-  0.8+    230713 I93  0.3+  0.1+    230714 033  0.2-  0.3-
    230712 W16  0.3-  0.5+    230713 033  0.1-  0.0     230714 033  0.4-  0.4-
    230712 W16  0.0   0.7-    230713 033  0.2+  0.1+    230714 033  0.2-  0.0
    230712 W16  0.4+  0.7-    230713 033  0.2+  0.6-    230714 033  0.4-  0.5+
    230713 W16  0.0   0.3+    230713 033  0.0   0.1+    230714 033  0.3-  0.3+
    230713 W16  0.2+  0.3+    230713 B72  0.5+  0.5+    230714 H21  0.2-  0.2-
    230713 W16  0.1+  0.2+    230713 K74  0.2+  0.6+    230714 H21  0.3-  0.1+
    230713 W16  0.1+  0.1-    230713 G15  0.6+  0.6+    230714 H21  0.1-  0.0
    230713 W16  0.7+  0.6+    230713 C95  0.3+  0.1+    230714 H21  0.1-  0.1-
    230713 L51  0.5-  0.1+    230713 B72  0.4+  0.4-    230714 104  0.3+  0.3+
    230713 L51  0.0   0.2-    230713 G15  0.8+  0.6-    230714 K83  0.6+  0.5-
    230713 L51  0.3+  1.2-    230713 K74  0.1+  0.0     230714 104  0.9+  0.4-
    230713 L01  0.1+  0.1+    230713 B72  0.1+  0.3-    230714 104  0.3+  0.6+
    230713 L01  0.1-  0.8+    230713 C95  0.5+  0.0     230714 K83  0.3-  0.2+
    230713 L01  0.5-  0.1-    230713 G15  1.2+  0.6-    230714 K83  0.5-  0.1+
    230713 I93  0.4-  0.0     230713 K74  0.5-  0.4+    230715 595  0.6-  0.4+
    230713 L01  0.5+  0.8-    230713 B72  0.4+  0.5-    230715 595  0.5-  0.8+
    230713 I93  0.4-  0.5-    230713 C95  0.1+  0.2-    230715 595  1.0-  0.5+
    
    Ephemeris:
    2023 NL1                 a,e,i = 1.33, 0.15, 28                  q = 1.1293
    Date    TT    R. A. (2000) Decl.     Delta      r    Elong.  Phase     V
    2023 06 15    20 08 00.2 +41 41 07   0.3396  1.1543   105.6    58.0    22.8
    ...
    2023 06 30    20 23 32.1 +34 21 09   0.2298  1.1388   116.8    52.9    21.7
    ...
    2023 07 08    20 31 50.1 +24 38 17   0.1744  1.1334   128.4    44.6    20.9
    ...
    2023 07 14    20 38 28.7 +11 35 36   0.1396  1.1308   142.7    33.0    20.1
    2023 07 15    20 39 38.9 +08 44 06   0.1349  1.1305   145.7    30.4    19.9
    2023 07 16    20 40 50.5 +05 39 32   0.1305  1.1302   148.9    27.7    19.8
    ...
    2023 07 22    20 48 43.3 -16 51 07   0.1153  1.1293   168.6    10.2    18.9
    ...
    2023 07 30    21 02 27.5 -47 46 14   0.1299  1.1300   150.4    26.4    19.7
    ...
    2023 08 14    21 49 21.1 -75 25 07   0.2212  1.1374   119.1    51.1    21.6
    
    A. U. Tomatic                (C) Copyright 2023 MPC           M.P.E.C. 2023-N72
    


    Read MPEC 2023-N71 Read MPEC 2023-N73


    MPEC number:

    Enter an MPEC number in one of the following forms:

    • 1997-B01 (the full form)
    • J97B01 (the packed version of the full form)
    • B01 (the abbreviated form)